CAPE
1130 1333 1792 1884 1973 2056 2073 2154 2208 2237 2242 2152 2067 2003 2045 1950 1857 2074 2130 2123 2002 1607 1721 1541 1464 1289 911 926 897 830 702 596 612 594 621 713 997 1008 940 825 1035 907 878
1239 1452 1724 1856 1916 1997 2037 2177 2248 2304 2243 1875 1879 1890 1866 1741 1701 1733 1896 2010 1928 1428 1478 1315 1256 1080 976 699 811 656 478 622 576 555 640 424 414 1007 806 788 855 1091 822
1355 1490 1497 1716 1931 2069 2073 2114 2328 2267 1915 1814 1797 1850 1733 1453 1421 1474 1350 1209 929 829 920 722 550 521 404 212 147 143 207 306 265 358 502 136 211 839 986 779 859 989 774
1355 1393 1394 1660 1872 2059 2115 2193 2229 2099 1921 2082 1925 1386 1096 965 796 744 705 620 531 474 427 331 229 164 83 49 78 78 98 128 132 202 105 389 397 744 1120 947 917 897 797
1000 1152 1586 1693 1863 2096 2149 2175 2125 2246 2156 2051 1751 1483 1180 786 648 542 417 381 330 264 223 115 60 12 1 0 0 0 0 1 26 47 153 674 864 1396 1134 1139 994 1015 1103
719 785 1176 1463 1736 1961 2235 2282 2175 2015 1794 1443 1505 978 596 399 278 223 141 117 40 9 0 0 0 0 0 0 0 0 0 0 0 4 43 614 854 1114 920 840 1003 1079 1011
360 425 759 1090 1427 1756 1942 1963 1800 1513 1315 1185 733 511 282 105 14 9 1 0 0 0 0 0 0 0 0 0 0 0 0 0 0 0 14 112 756 1033 1004 810 778 773 848
184 184 467 984 1059 1259 1399 1239 1110 1045 982 764 482 214 17 2 1 0 0 0 0 0 0 0 0 0 0 0 0 0 0 0 0 0 0 9 99 439 500 421 459 577 577
0 2 9 134 366 397 569 574 525 504 391 214 71 1 0 0 0 0 0 0 0 0 0 0 0 0 0 0 0 0 0 0 0 0 0 0 1 3 2 3 118 312 530
0 0 0 0 0 0 40 155 137 119 32 0 0 0 0 0 0 0 0 0 0 0 0 0 0 0 0 0 0 0 0 0 0 0 0 1 16 10 5 4 5 28 47
0 0 0 0 0 0 0 6 7 0 0 0 0 0 0 0 0 0 0 0 0 0 0 0 0 0 0 0 0 0 0 0 0 0 0 0 3 10 9 16 18 29 38
0 0 0 0 0 0 0 0 0 0 0 0 0 0 0 0 0 0 0 0 0 0 0 0 0 0 0 0 0 0 0 0 0 0 0 0 1 4 5 3 6 28 55
0 0 0 0 0 0 0 0 0 0 0 0 0 0 0 0 0 0 0 0 0 0 0 0 0 0 0 0 0 0 0 0 0 0 0 0 0 4 27 35 13 53 33
0 0 0 0 0 0 0 0 0 0 0 0 0 0 0 0 0 0 0 0 0 0 0 0 0 0 0 0 0 0 0 0 0 0 0 0 1 15 10 16 55 43 24
0 0 0 0 0 0 0 0 0 0 0 0 0 0 0 0 0 0 0 0 0 0 0 0 0 0 0 0 0 0 0 0 0 0 0 0 4 4 10 30 37 29 28
0 0 0 0 0 0 0 0 0 0 0 0 0 0 0 0 0 0 0 0 0 0 0 0 0 0 0 0 0 0 0 0 0 0 0 0 2 4 11 23 28 21 22
0 0 0 0 0 0 0 0 0 0 0 0 0 0 0 0 0 0 0 0 0 0 0 0 0 0 0 0 0 0 0 0 0 0 0 0 0 3 17 17 20 10 12
0 0 0 0 0 0 0 0 0 0 0 0 0 0 0 0 0 0 0 0 0 0 0 0 0 0 0 0 0 0 0 0 0 0 0 0 0 0 0 8 11 7 10
0 0 0 0 0 0 0 0 0 0 0 0 0 0 0 0 0 0 0 0 0 0 0 0 0 0 0 0 0 0 0 0 0 0 0 0 0 0 0 0 0 1 4
0 0 0 0 0 0 0 0 0 0 0 0 0 0 0 0 0 0 0 0 0 0 0 0 0 0 0 0 0 0 0 0 0 0 0 0 0 0 0 0 0 0 2
0 0 0 0 0 0 0 0 0 0 0 0 0 0 0 0 0 0 0 0 0 0 0 0 0 0 0 0 0 0 0 0 0 0 0 0 0 0 0 0 0 0 0
0 0 0 0 0 0 0 0 0 0 0 0 0 0 0 0 0 0 0 0 0 0 0 0 0 0 0 0 0 0 0 0 0 0 0 0 0 0 0 0 0 0 0
0 0 0 0 0 0 0 0 0 0 0 0 0 0 0 0 0 0 0 0 0 0 0 0 0 0 0 0 0 0 0 0 0 0 0 0 0 0 0 0 0 0 0
0 0 0 0 0 0 0 0 0 0 0 0 0 0 0 0 0 0 0 0 0 0 0 0 0 0 0 0 0 0 0 0 0 0 0 0 0 0 0 0 0 0 0
0 0 0 0 0 0 0 0 0 0 0 0 0 0 0 0 0 0 0 0 0 0 0 0 0 0 0 0 0 0 0 0 0 0 0 0 0 0 0 0 0 0 0
0 0 0 0 0 0 0 0 0 0 0 0 0 0 0 0 0 0 0 0 0 0 0 0 0 0 0 0 0 0 0 0 0 0 0 0 0 0 0 0 0 0 0
CIN
-304 -240 -83 -36 -28 -18 -55 -50 -46 -40 -14 -8 -2 -2 -1 -1 0 0 0 0 0 -3 -1 -1 0 -2 -15 -10 -5 -3 -8 -16 -22 -28 -31 -21 -6 -7 -13 -24 -15 -15 -8
-298 -203 -107 -56 -35 -19 -46 -44 -39 -38 -28 -49 -30 -14 -8 -11 -8 -5 0 0 0 -5 -2 -15 -8 -10 -19 -35 -9 -11 -23 -21 -38 -59 -58 -72 -55 -22 -22 -17 -15 -8 -26
-259 -209 -147 -63 -13 -5 -30 -32 -25 -36 -64 -65 -55 -30 -22 -39 -36 -19 -22 -32 -64 -73 -46 -78 -115 -93 -99 -118 -88 -90 -80 -82 -107 -92 -84 -169 -114 -32 -18 -24 -16 -7 -22
-208 -180 -156 -69 -14 -1 -11 -13 -28 -41 -56 -37 -41 -101 -119 -129 -155 -140 -134 -148 -178 -180 -182 -183 -213 -229 -250 -229 -154 -167 -142 -160 -163 -132 -201 -133 -110 -35 -9 -14 -9 -10 -9
-260 -184 -71 -42 -10 -2 -1 -3 -21 -15 -26 -32 -49 -80 -115 -162 -193 -211 -238 -202 -239 -250 -251 -290 -344 -106 0 0 0 0 0 -65 -242 -218 -166 -74 -67 -5 -7 -9 -5 -4 -3
-297 -267 -132 -55 -11 0 0 0 -4 -21 -52 -90 -75 -139 -210 -252 -316 -329 -359 -357 -408 -473 0 0 0 0 0 0 0 0 0 0 -6 -68 -188 -51 -21 -3 -10 -16 -10 -2 -2
-385 -335 -211 -118 -54 -17 -7 -6 -19 -55 -91 -104 -176 -220 -292 -361 -334 -382 0 0 0 0 0 0 0 0 0 0 0 0 0 0 0 0 -173 -102 -4 0 0 -1 -2 -4 -3
-427 -423 -276 -164 -144 -84 -56 -88 -104 -112 -116 -152 -224 -310 -446 0 0 0 0 0 0 0 0 0 0 0 0 0 0 0 0 0 0 0 0 -64 -43 -3 -1 -2 -1 -1 -1
0 -130 -636 -467 -329 -303 -233 -229 -233 -217 -245 -313 -400 -7 0 0 0 0 0 0 0 0 0 0 0 0 0 0 0 0 0 0 0 0 0 0 0 0 0 0 -15 -2 0
0 0 0 0 0 0 -536 -410 -421 -411 -449 0 0 0 0 0 0 0 0 0 0 0 0 0 0 0 0 0 0 0 0 0 0 0 0 -4 0 0 0 0 0 0 -30
0 0 0 0 0 0 0 -160 -345 0 0 0 0 0 0 0 0 0 0 0 0 0 0 0 0 0 0 0 0 0 0 0 0 0 0 0 0 0 0 0 0 -3 -2
0 0 0 0 0 0 0 0 0 0 0 0 0 0 0 0 0 0 0 0 0 0 0 0 0 0 0 0 0 0 0 0 0 0 0 0 0 0 0 0 0 -3 0
0 0 0 0 0 0 0 0 0 0 0 0 0 0 0 0 0 0 0 0 0 0 0 0 0 0 0 0 0 0 0 0 0 0 0 0 0 0 0 0 0 0 0
0 0 0 0 0 0 0 0 0 0 0 0 0 0 0 0 0 0 0 0 0 0 0 0 0 0 0 0 0 0 0 0 0 0 0 0 0 0 0 0 0 0 0
0 0 0 0 0 0 0 0 0 0 0 0 0 0 0 0 0 0 0 0 0 0 0 0 0 0 0 0 0 0 0 0 0 0 0 0 0 0 0 0 0 0 0
0 0 0 0 0 0 0 0 0 0 0 0 0 0 0 0 0 0 0 0 0 0 0 0 0 0 0 0 0 0 0 0 0 0 0 0 0 0 0 0 0 0 0
0 0 0 0 0 0 0 0 0 0 0 0 0 0 0 0 0 0 0 0 0 0 0 0 0 0 0 0 0 0 0 0 0 0 0 0 0 0 0 0 0 0 0
0 0 0 0 0 0 0 0 0 0 0 0 0 0 0 0 0 0 0 0 0 0 0 0 0 0 0 0 0 0 0 0 0 0 0 0 0 0 0 0 0 0 0
0 0 0 0 0 0 0 0 0 0 0 0 0 0 0 0 0 0 0 0 0 0 0 0 0 0 0 0 0 0 0 0 0 0 0 0 0 0 0 0 0 0 0
0 0 0 0 0 0 0 0 0 0 0 0 0 0 0 0 0 0 0 0 0 0 0 0 0 0 0 0 0 0 0 0 0 0 0 0 0 0 0 0 0 0 0
0 0 0 0 0 0 0 0 0 0 0 0 0 0 0 0 0 0 0 0 0 0 0 0 0 0 0 0 0 0 0 0 0 0 0 0 0 0 0 0 0 0 0
0 0 0 0 0 0 0 0 0 0 0 0 0 0 0 0 0 0 0 0 0 0 0 0 0 0 0 0 0 0 0 0 0 0 0 0 0 0 0 0 0 0 0
0 0 0 0 0 0 0 0 0 0 0 0 0 0 0 0 0 0 0 0 0 0 0 0 0 0 0 0 0 0 0 0 0 0 0 0 0 0 0 0 0 0 0
0 0 0 0 0 0 0 0 0 0 0 0 0 0 0 0 0 0 0 0 0 0 0 0 0 0 0 0 0 0 0 0 0 0 0 0 0 0 0 0 0 0 0
0 0 0 0 0 0 0 0 0 0 0 0 0 0 0 0 0 0 0 0 0 0 0 0 0 0 0 0 0 0 0 0 0 0 0 0 0 0 0 0 0 0 0
0 0 0 0 0 0 0 0 0 0 0 0 0 0 0 0 0 0 0 0 0 0 0 0 0 0 0 0 0 0 0 0 0 0 0 0 0 0 0 0 0 0 0
Wind_Speed
7 7 12 13 13 11 13 14 14 16 16 17 17 16 15 15 14 13 12 11 10 11 11 11 11 11 10 10 10 11 10 10 9 7 5 3 3 4 5 7 7 5 8
11 7 11 11 12 13 14 14 14 15 16 17 17 15 14 14 13 13 12 12 12 11 11 12 10 10 9 9 10 11 10 10 8 7 5 3 1 4 5 4 5 5 8
9 9 9 11 12 12 13 14 14 16 17 16 16 16 15 15 14 13 12 12 11 10 9 9 9 8 9 9 10 10 10 10 10 10 10 4 2 3 6 4 3 4 6
10 8 7 12 11 11 11 12 14 16 16 16 16 16 14 14 13 12 11 10 9 8 9 8 8 8 8 9 10 9 10 10 10 10 6 4 2 3 7 5 4 4 4
10 6 7 11 11 12 10 10 13 15 15 15 15 14 15 13 12 11 10 9 9 9 9 9 9 9 9 11 10 9 10 11 9 7 7 6 6 8 9 7 3 3 2
8 6 8 11 11 12 13 13 14 14 13 13 14 14 13 11 11 10 11 10 9 9 8 8 8 8 9 10 9 9 13 11 9 6 7 9 7 12 11 10 8 6 5
7 5 6 11 12 14 13 14 15 14 14 14 14 14 11 10 10 10 10 9 9 8 8 9 9 9 10 9 9 10 10 8 5 5 6 7 8 14 14 13 12 8 8
10 6 5 13 13 10 10 13 14 15 14 13 15 13 11 10 10 10 9 10 9 9 11 11 9 9 9 11 12 11 8 8 6 7 7 6 11 13 13 12 12 12 10
5 5 4 7 10 11 10 11 12 13 13 13 15 13 12 12 10 10 10 11 11 11 11 11 11 11 11 12 14 15 15 14 7 4 6 4 12 12 12 11 12 12 10
4 3 8 6 5 6 5 11 13 12 13 14 13 13 12 12 12 10 10 10 10 9 10 11 11 12 12 13 14 14 15 14 7 6 4 5 13 14 13 12 12 14 14
4 3 7 6 4 4 4 7 10 12 13 12 12 12 8 4 6 7 9 9 8 8 7 10 11 12 11 13 15 14 12 4 5 5 4 13 14 14 12 12 14 15 14
9 8 8 7 6 6 4 4 5 6 4 4 4 4 3 3 4 5 6 8 11 10 11 11 11 11 8 5 4 9 4 5 5 4 5 15 16 15 13 10 10 15 16
10 8 9 9 6 6 4 4 3 2 3 3 5 4 3 3 4 4 3 4 4 7 4 5 5 4 5 4 4 4 5 5 4 4 10 16 16 15 17 16 12 14 19
8 8 9 6 6 4 4 3 3 4 2 2 4 6 4 3 4 4 3 4 4 3 4 4 3 4 5 5 6 6 6 5 3 3 10 16 16 18 16 16 18 20 19
12 10 10 8 7 6 5 4 4 3 3 4 4 4 4 4 4 4 4 4 4 3 4 4 4 5 5 6 5 7 6 6 6 4 4 17 18 18 17 17 19 21 20
12 11 10 9 7 8 6 6 4 4 4 4 4 4 5 4 4 4 4 4 4 3 3 4 4 4 5 5 5 6 6 5 6 6 4 8 18 18 18 18 20 20 20
15 16 14 11 11 11 10 8 6 5 4 4 4 5 5 5 5 5 4 4 3 3 5 5 5 4 5 4 7 6 5 6 6 7 5 5 8 19 18 18 17 17 19
13 15 12 10 11 11 11 9 7 6 5 4 4 4 6 6 6 5 5 4 3 4 4 4 3 4 5 5 4 4 5 5 6 6 6 6 6 5 13 18 17 17 16
15 15 13 11 12 12 10 8 7 8 6 5 4 4 5 6 6 5 4 4 4 4 4 3 4 3 4 4 5 5 5 5 5 7 8 7 8 6 5 15 17 17 16
13 14 14 12 12 11 8 7 6 5 4 4 4 4 6 5 6 5 4 4 4 4 4 3 5 5 4 3 7 8 6 6 5 5 5 6 8 7 7 8 5 7 17
15 16 16 15 13 12 9 9 5 5 4 4 4 5 6 5 6 6 4 5 5 4 2 3 3 4 5 2 5 8 7 7 6 4 3 4 7 6 6 5 4 4 6
21 18 17 16 15 12 10 5 4 5 2 3 4 5 6 6 6 5 5 5 5 4 3 3 4 2 3 3 4 4 4 3 5 5 4 5 6 5 6 6 6 6 5
19 18 16 15 14 10 9 8 5 6 4 3 3 3 3 6 6 6 6 5 5 4 3 2 3 4 3 3 4 4 4 4 3 4 5 4 5 4 4 5 5 5 5
13 12 13 13 11 7 10 9 12 4 5 3 4 3 4 6 6 6 6 5 5 3 4 2 2 2 3 4 2 4 3 4 5 4 2 3 4 5 3 4 5 5 5
8 9 10 10 9 10 9 11 9 5 2 4 3 7 5 4 5 6 6 6 6 4 3 5 4 4 1 2 2 2 4 3 3 5 4 2 3 4 3 4 4 4 4
8 9 9 9 7 8 11 11 9 10 8 7 5 5 4 3 4 5 6 5 6 5 5 4 3 5 4 4 2 2 2 3 3 4 5 3 4 3 4 4 4 4 3
Wind_Direction
164 158 153 142 130 122 115 116 116 114 113 112 110 108 106 104 101 98 97 97 93 87 86 86 79 74 67 58 51 48 46 47 39 33 31 33 71 87 79 93 106 108 100
131 139 136 132 131 132 125 122 121 117 116 115 113 109 106 104 100 94 89 85 85 82 77 76 69 64 57 50 48 45 37 36 22 2 352 339 263 153 118 93 110 116 107
129 134 140 137 137 138 132 130 127 124 123 119 116 113 109 106 101 91 85 82 80 77 66 72 67 52 46 46 43 33 28 26 7 357 353 342 284 181 141 129 126 116 114
127 124 137 139 140 138 136 139 132 129 125 121 116 114 111 105 101 94 88 82 82 77 73 69 67 61 48 44 43 32 28 25 12 1 350 331 291 190 147 137 152 139 131
121 118 132 130 137 135 138 143 134 127 121 117 121 114 104 106 104 103 101 92 86 81 72 64 63 59 48 44 39 27 32 31 27 22 5 17 54 91 89 68 119 91 149
98 100 118 124 127 126 129 129 126 127 127 114 102 108 111 109 104 97 92 89 79 71 69 64 56 54 53 47 38 22 35 39 42 26 24 29 52 72 67 69 66 56 49
108 99 123 127 129 123 129 135 125 115 107 110 116 115 107 104 100 96 93 86 78 71 67 65 56 54 57 54 43 36 52 66 71 52 38 33 52 64 60 51 41 38 26
134 129 134 107 94 102 115 106 107 109 113 121 116 106 112 106 100 95 87 88 80 73 69 65 60 61 61 53 48 45 60 87 74 64 48 45 50 53 52 47 37 28 19
100 112 106 91 110 98 99 105 107 109 113 112 105 117 116 110 104 102 99 88 80 73 63 59 58 73 72 56 61 74 77 84 65 53 56 46 63 59 53 47 50 42 32
109 142 111 94 86 89 104 119 111 115 117 114 123 125 122 113 108 103 97 90 77 68 67 65 64 68 66 61 71 83 77 69 55 51 35 48 59 56 56 49 42 38 33
123 117 106 112 119 132 136 133 127 125 120 128 130 125 106 95 95 95 91 76 68 76 85 67 66 70 65 64 84 86 77 59 60 47 37 58 58 54 46 45 40 32 33
167 158 149 153 164 164 154 108 103 108 87 102 109 110 106 110 113 91 77 84 73 77 73 65 62 66 66 65 69 83 73 68 60 54 62 65 64 60 55 42 37 31 43
180 170 170 161 161 164 133 124 103 106 113 107 115 114 88 87 69 77 69 56 48 58 45 50 48 52 72 77 77 85 80 69 61 47 62 65 66 65 62 64 70 61 51
175 174 164 159 156 155 115 118 118 112 92 117 132 134 125 109 86 82 76 67 60 40 63 52 49 62 64 80 92 103 93 84 70 57 66 66 63 62 56 53 63 57 44
178 173 173 160 160 138 131 129 118 108 97 88 80 83 105 109 113 111 98 86 69 55 53 55 54 54 57 58 69 110 102 95 82 72 69 76 70 66 63 59 56 47 38
176 174 171 171 162 146 144 142 131 125 122 100 97 100 101 112 112 95 83 80 77 80 82 77 64 62 56 52 59 100 98 88 87 78 66 76 78 69 67 66 60 48 39
181 173 175 169 164 160 151 140 131 132 111 98 91 82 94 110 104 106 81 59 48 61 72 73 64 68 61 53 50 82 93 87 85 80 70 59 66 71 70 67 62 49 35
185 181 167 169 161 149 148 143 136 131 125 117 104 88 97 108 111 108 109 91 34 38 58 60 69 66 61 63 75 91 93 84 83 73 64 67 65 51 65 67 53 41 34
185 174 163 151 152 145 137 134 128 127 123 121 115 109 107 103 104 102 105 111 105 83 62 66 54 76 56 62 93 79 65 66 85 84 78 73 74 57 51 61 55 47 41
180 167 155 153 144 136 127 121 123 121 106 109 113 108 110 113 110 108 94 85 73 83 88 81 84 48 73 76 90 72 59 52 53 63 84 83 79 70 67 60 38 30 45
178 164 163 150 149 143 146 144 137 137 128 104 99 109 102 112 109 111 108 96 86 80 83 127 88 75 50 19 101 76 57 51 52 46 55 77 85 82 79 67 57 42 32
176 166 162 160 158 157 153 144 129 142 91 109 115 107 110 112 116 120 116 106 105 97 77 92 115 114 82 5 121 102 113 50 33 25 33 63 65 81 75 65 56 48 35
176 169 161 159 159 154 136 115 85 84 79 87 100 112 126 119 114 114 113 113 108 105 98 75 115 144 146 37 56 138 136 152 139 5 27 43 65 78 64 60 57 50 40
165 155 149 151 157 134 138 127 143 150 148 182 150 138 126 126 125 124 119 113 107 102 95 77 81 118 127 154 93 49 61 131 151 146 58 33 48 76 76 60 57 52 50
128 134 132 146 154 143 147 153 143 142 107 111 120 130 130 120 121 120 117 117 107 100 98 96 81 77 70 133 127 124 61 60 81 135 128 115 35 25 44 51 50 43 44
98 116 135 147 149 166 157 159 153 149 143 145 147 148 136 119 108 110 116 115 122 112 110 101 95 80 74 69 90 102 144 146 150 124 113 114 130 20 36 28 27 14 35